Home > Weather > Sidney > Past weeks

Flag for Canada Past Weather in Sidney, British Columbia, Canada — Yesterday and Last 2 Weeks

Now
73 °F

Passing clouds.


Feels Like: 77 °F
Forecast: 60 / 75 °F
Wind: 8 mph from Southeast

Location: Victoria Int. Airportb. C.

Current Time: Jul 24, 2016 at 5:22:11 PM

Latest Report: Jul 24, 2016 at 4:00 PM


Visibility: 30 mi

Pressure: 30.07 "Hg

Humidity: 50%

Dew Point: 54 °F

Location of SidneyLocation

Past Weather in Sidney — Graph

°F

Sidney Temperature Yesterday

Maximum temperature yesterday: 72 °F (at 4:00 PM)
Minimum temperature yesterday: 59 °F (at 11:00 PM)
Average temperature yesterday: 65 °F

High & Low Weather Summary for the Past Weeks

 TemperatureHumidityPressure
High79 °F (Jul 21, 3:00 PM)94% (Jul 10, 12:00 AM)30.25 "Hg (Jul 10, 12:00 AM)
Low54 °F (Jul 10, 5:00 AM)39% (Jul 22, 1:00 PM)29.89 "Hg (Jul 17, 7:00 PM)
Average64 °F69%30.08 "Hg
* Reported Jul 9 4:00 PM — Jul 24 4:00 PM, Sidney, Weather by CustomWeather, © 2016

Note: Actual official high and low records may vary slightly from our data, if they occured in-between our weather recording intervals... More about our weather records

Advertising

Sidney Weather History for the Previous 24 Hours

Scroll right to see more
 ConditionsComfort  
Time TempWeatherWind HumidityBarometerVisibility
4:00 PM
Sun, Jul 24
73 °FPassing clouds.8 mph50%30.07 "Hg30 mi
3:00 PM73 °FPassing clouds.9 mph50%30.08 "Hg30 mi
2:00 PM73 °FPassing clouds.9 mph50%30.09 "Hg30 mi
1:00 PM70 °FPassing clouds.9 mph53%30.11 "Hg30 mi
12:00 PM68 °FSunny.8 mph60%30.12 "Hg30 mi
11:00 AM70 °FSunny.7 mph57%30.12 "Hg30 mi
10:00 AM66 °FSunny.7 mph64%30.13 "Hg30 mi
9:00 AM66 °FSunny.2 mph68%30.14 "Hg30 mi
8:00 AM61 °FSunny.2 mph77%30.14 "Hg30 mi
7:00 AM59 °FSunny.No wind88%30.14 "Hg30 mi
6:00 AM57 °FClear.No wind88%30.14 "Hg30 mi
5:00 AM59 °FClear.3 mph82%30.14 "Hg30 mi
4:00 AM59 °FClear.3 mph82%30.15 "Hg30 mi
3:00 AM57 °FClear.No wind82%30.16 "Hg30 mi
2:00 AM59 °FClear.3 mph77%30.16 "Hg30 mi
1:00 AM57 °FClear.No wind82%30.18 "Hg30 mi
12:00 AM59 °FClear.2 mph77%30.18 "Hg30 mi
11:00 PM
Sat, Jul 23
59 °FClear.2 mph77%30.19 "Hg30 mi
10:00 PM63 °FPassing clouds.5 mph68%30.19 "Hg30 mi
9:00 PM64 °FPassing clouds.7 mph64%30.19 "Hg30 mi
8:00 PM66 °FPassing clouds.9 mph56%30.19 "Hg30 mi
7:00 PM70 °FPassing clouds.10 mph50%30.19 "Hg30 mi
6:00 PM70 °FPassing clouds.10 mph53%30.21 "Hg30 mi
5:00 PM72 °FPassing clouds.9 mph50%30.22 "Hg30 mi
Weather by CustomWeather, © 2016

See weather overviewHow to use our weather pages